Regional Weather Roundup
Issued by NWS

Home | Current Version | Previous Version | Graphics & Text | Print | Product List | Glossary On
Versions: 1 2 3 4 5 6 7 8 9 10 11 12 13 14 15 16 17 18 19 20 21 22 23 24 25 26 27 28 29 30 31 32 33 34 35 36 37 38 39 40 41 42 43 44 45 46 47 48 49 50
000
ASUS45 KCYS 020610
RWRWY

WYOMING REGIONAL WEATHER ROUNDUP
NATIONAL WEATHER SERVICE CHEYENNE WY
1200 AM MDT THU OCT 02 2014

NOTE:  "FAIR" INDICATES FEW OR NO CLOUDS BELOW 12,000 FEET
WITH NO SIGNIFICANT WEATHER AND/OR OBSTRUCTIONS TO VISIBILITY.

WYZ001-020700-
YELLOWSTONE NATIONAL PARK

CITY           SKY/WX    TMP DP  RH WIND       PRES   REMARKS
LK YELLOWSTONE   N/A     26  24  92 CALM      30.18R
6HR MIN TEMP:  26; 6HR MAX TEMP:  36;

W YELLOWSTONE  NOT AVBL

$$
WYZ002>013-054>058-071-098>099-020700-
NORTHERN WYOMING

CITY           SKY/WX    TMP DP  RH WIND       PRES   REMARKS
JACKSON        PTCLDY    37  32  81 S13       30.16S WCI  29
CODY           CLEAR     48  28  46 W10G17    30.02F
GREYBULL       CLEAR     45  40  82 E5        30.03S
6HR MIN TEMP:  44; 6HR MAX TEMP:  57;

WORLAND        CLEAR     41  35  79 S9        30.04S
6HR MIN TEMP:  40; 6HR MAX TEMP:  52;

SHERIDAN       MOCLDY    36  31  82 S5        30.00F WCI  32
6HR MIN TEMP:  34; 6HR MAX TEMP:  52;

BUFFALO        CLEAR     38  32  79 SW8       30.03F WCI  32
6HR MIN TEMP:  36; 6HR MAX TEMP:  48;

GILLETTE       CLEAR     40  36  86 SW9       30.01F WCI  34
6HR MIN TEMP:  40; 6HR MAX TEMP:  50;

HULETT         FAIR      39  36  87 SW8       30.01  WCI  34
NEWCASTLE      FAIR      41  37  87 N6        30.03

$$
WYZ014>020-022>026-101>103-020700-
CENTRAL WYOMING

CITY           SKY/WX    TMP DP  RH WIND       PRES   REMARKS
BIG PINEY      PTCLDY    34  27  75 NW12      30.19S WCI  25
6HR MIN TEMP:  29; 6HR MAX TEMP:  44;

PINEDALE       PTCLDY    32  30  93 NW7       30.19S WCI  26
DUBOIS         FAIR      34  25  69 NW10      30.12F WCI  26
LANDER         CLEAR     39  29  67 S5        30.09F
6HR MIN TEMP:  35; 6HR MAX TEMP:  40;

RIVERTON       CLEAR     35  34  96 SW9       30.10S WCI  28
6HR MIN TEMP:  35; 6HR MAX TEMP:  42;

CASPER         CLEAR     35  33  92 SW7       30.09S WCI  29
6HR MIN TEMP:  35; 6HR MAX TEMP:  42;

DOUGLAS        PTCLDY    37  35  92 NW7       30.08S WCI  32
6HR MIN TEMP:  35; 6HR MAX TEMP:  46; 6HR PCP:  0.03;


$$
WYZ021-027>030-104>119-020700-
SOUTHERN WYOMING

CITY           SKY/WX    TMP DP  RH WIND       PRES   REMARKS
EVANSTON       PTCLDY    33  29  85 SW9       30.25S WCI  25
6HR MIN TEMP:  32; 6HR MAX TEMP:  44;

KEMMERER       CLEAR     32  30  93 W7        30.23S WCI  26
FORT BRIDGER     N/A     36  32  85 W13       30.26S WCI  27
ROCK SPRINGS   CLEAR     34  28  79 W13       30.19R WCI  25
6HR MIN TEMP:  34; 6HR MAX TEMP:  43; 6HR PCP: TRACE;

DIXON          CLOUDY    36  34  94 CALM      30.21R
RAWLINS        CLEAR     33  31  92 SW5       30.15R WCI  29
6HR MIN TEMP:  33; 6HR MAX TEMP:  45;

SARATOGA       MOCLDY    34  32  93 W9        30.15R WCI  26
LARAMIE        PTCLDY    34  31  88 N3        30.10S
6HR MIN TEMP:  33; 6HR MAX TEMP:  43;

CHEYENNE       MOCLDY    39  36  89 NW8       30.07S WCI  33
6HR MIN TEMP:  39; 6HR MAX TEMP:  43;

TORRINGTON     CLEAR     41  39  93 NW7       30.03S
6HR MIN TEMP:  40; 6HR MAX TEMP:  50; 6HR PCP: TRACE;

PINE BLUFFS    MOCLDY    37  36  93 NW7       30.06R WCI  32

$$


USA.gov is the U.S. government's official web portal to all federal, state and local government web resources and services.